Flag for Hungary Weather past 2 weeks in Szeged, Hungary

Now
59 °F

Overcast.


Feels Like: 60 °F
Forecast: 49 / 60 °F
Wind: 3 mph from West

Location: Szeged

Current Time: Sep 22, 2014 at 7:06:18 PM

Latest Report: Sep 22, 2014 at 6:00 PM


Visibility: 25 mi

Pressure: 29.82 "Hg

Humidity: 66%

Dew point: 48 °F

Location of SzegedLocation

Historic Weather in Szeged — Graph

°F

Szeged temperature yesterday

Maximum temperature yesterday: 80 °F (at 3:00 PM)
Minimum temperature yesterday: 60 °F (at 3:00 AM)
Average temperature yesterday: 66 °F

Past Weeks' High & Low Weather Summary

 TemperatureHumidityPressure
High82 °F (Sep 9, 4:00 PM)97% (Sep 8, 7:00 AM)30.16 "Hg (Sep 8, 7:00 AM)
Low50 °F (Sep 18, 7:00 AM)36% (Sep 18, 3:00 PM)29.77 "Hg (Sep 22, 5:00 AM)
Average65 °F82%29.98 "Hg
* Reported Sep 7 5:00 PM — Sep 22 5:00 PM, Szeged, Weather by CustomWeather, © 2014

Note: Actual official high and low records may vary slightly from our data, if they occured in-between our weather recording intervals... More about our weather records

Advertising

Szeged weather history for previous 24 hours

 ConditionsComfort  
Time TempWeatherWind HumidityBarometerVisibility
5:00 PM
Sep 22
61 °FLight rain. Overcast.7 mph60%29.82 "Hg19 mi
4:00 PM63 °FOvercast.8 mph60%29.81 "Hg25 mi
3:00 PM64 °FOvercast.8 mph64%29.80 "Hg22 mi
2:00 PM63 °FOvercast.9 mph60%29.80 "Hg25 mi
1:00 PM64 °FOvercast.8 mph73%29.80 "Hg28 mi
12:00 PM61 °FLight rain. Low clouds.8 mph86%29.80 "Hg19 mi
11:00 AM61 °FDrizzle. Low clouds.3 mph95%29.79 "Hg16 mi
10:00 AM61 °FRain. Low clouds.2 mph96%29.80 "Hg5 mi
9:00 AM62 °FRain showers. Low clouds.2 mph95%29.78 "Hg5 mi
8:00 AM61 °FOvercast.No wind96%29.78 "Hg7 mi
7:00 AM60 °FLight rain. Overcast.2 mph97%29.78 "Hg9 mi
6:00 AM60 °FOvercast.1 mph96%29.77 "Hg12 mi
5:00 AM60 °FLight rain. Overcast.No wind95%29.77 "Hg5 mi
4:00 AM61 °FLight rain. Overcast.2 mph92%29.79 "Hg5 mi
3:00 AM61 °FLight rain. Overcast.2 mph93%29.82 "Hg6 mi
2:00 AM59 °FOvercast.2 mph95%29.83 "Hg6 mi
1:00 AM59 °FOvercast.2 mph96%29.83 "Hg5 mi
12:00 AM59 °FPassing clouds.1 mph95%29.83 "Hg5 mi
11:00 PM
Sep 21
60 °FPassing clouds.2 mph95%29.84 "Hg6 mi
10:00 PM62 °FPassing clouds.2 mph92%29.85 "Hg9 mi
9:00 PM61 °FPassing clouds.1 mph91%29.86 "Hg9 mi
8:00 PM64 °FPassing clouds.1 mph85%29.85 "Hg12 mi
7:00 PM70 °FPassing clouds.2 mph67%29.83 "Hg16 mi
Weather by CustomWeather, © 2014

See weather overviewHow to use our weather pages